Regional Weather Roundup
Issued by NWS Burlington, VT

Home | Current Version | Previous Version | Text Only | Print | Product List | Glossary On
Versions: 1 2 3 4 5 6 7 8 9 10 11 12 13 14 15 16 17 18 19 20 21 22 23 24 25 26 27 28 29 30 31 32 33 34 35 36 37 38 39 40 41 42 43 44 45 46 47 48 49 50
813
ASUS41 KBTV 220810
RWRBTV
VERMONT REGIONAL WEATHER ROUNDUP
NATIONAL WEATHER SERVICE BURLINGTON VT
300 AM EST SUN JAN 22 2017

NOTE: "FAIR" INDICATES FEW OR NO CLOUDS BELOW 12,000 FEET WITH NO
SIGNIFICANT WEATHER AND/OR OBSTRUCTIONS TO VISIBILITY.

* THESE REPORTS ARE NOT UNDER NWS QUALITY CONTROL AND/OR DO NOT
  REPORT WEATHER SUCH AS PRECIPITATION AND FOG.

VTZ001>019-220900-
_____VERMONT_____


CITY           SKY/WX    TMP DP  RH WIND       PRES   REMARKS
BURLINGTON     CLOUDY    37  36  96 N3        29.79R FOG
MONTPELIER     CLOUDY    35  35 100 CALM      29.79R FOG
MORRISVILLE    CLOUDY    33  33 100 CALM      29.79S FOG
ST. JOHNSBURY*   N/A     34  34 100 MISG      29.76R
LYNDONVILLE*   CLOUDY    34  34  99 CALM      29.77R FOG
MIDDLEBURY*    CLOUDY   N/A N/A N/A CALM      29.78R FOG
RUTLAND*       CLOUDY    38  37  97 NW5       29.77R
SPRINGFIELD    CLOUDY    33  31  92 N3        29.77R
HIGHGATE*      CLOUDY    34  34 100 CALM      29.81R FOG
NEWPORT*       FOG       33  33 100 N6        29.77S VSB 1   WCI  27
BENNINGTON     FOG       35  34  96 CALM      29.74S VSB 1/4
SUTTON*          N/A     34 N/A N/A MISG        N/A

_____LAKE CHAMPLAIN_____


CITY           SKY/WX    TMP DP  RH WIND       PRES   REMARKS
BURTON ISLAND*   N/A     36  36 100 E1          N/A
COLCHESTER RF*   N/A     37  37 100 NE9         N/A  WCI  31
DIAMOND ISL*     N/A     39  37  93 N9          N/A

$$

NYZ007-026>031-035-052-083-087-220900-
_____NORTHERN NEW YORK_____


CITY           SKY/WX    TMP DP  RH WIND       PRES   REMARKS
PLATTSBURGH    FOG       36  35  96 NE5       29.79R VSB 1/4
SARANAC LAKE   FOG       35  34  96 CALM      29.72S VSB 1/2
MASSENA        CLOUDY    36  36 100 NE5       29.80R FOG
OGDENSBURG*    CLOUDY    37  37 100 E5        29.76S
POTSDAM*       CLOUDY    37  37 100 E5        29.76S
WATERTOWN      CLOUDY    37  37 100 NE8       29.71F FOG     WCI  31
FT DRUM        MOCLDY    36  35  96 E7        29.70F WCI  31
ALBANY         CLOUDY    37  36  96 CALM      29.75S FOG
GLENS FALLS    CLOUDY    35  32  88 NE3       29.76F FOG

$$
NHZ002-005-011-220900-
_____NEW HAMPSHIRE_____


CITY           SKY/WX    TMP DP  RH WIND       PRES   REMARKS
LEBANON        CLOUDY    34  33  96 CALM      29.77R
KEENE          CLOUDY    30  30 100 NE3       29.76F FOG
MT WASHINGTON  FOG       27  27 100 NW48        N/A  VSB 1/16WCI   7
PLYMOUTH       CLOUDY    35  34  95 CALM      29.74R
WHITEFIELD     CLOUDY    34  31  88 CALM      29.75R FOG

$$

_____REGIONAL QUEBEC LOCATIONS_____


CITY           SKY/WX    TMP DP  RH WIND       PRES   REMARKS
MONTREAL       CLOUDY    32  30  93 NE10      29.82R FOG     WCI  24
QUEBEC CITY    CLOUDY    30  27  86 VRB2      29.81R
SHERBROOKE     CLOUDY    32  32 100 CALM      29.77R FOG

_____REGIONAL ONTARIO LOCATIONS_____


CITY           SKY/WX    TMP DP  RH WIND       PRES   REMARKS
OTTAWA         LGT RAIN  34  34 100 NE7       29.78R FOG     WCI  28

______KEY______
VSB  - VISIBILITY IN MILES
WCI  - WIND CHILL INDEX
HX   - HEAT INDEX
$$
NNNN




USA.gov is the U.S. government's official web portal to all federal, state and local government web resources and services.